This is the latest recevied weather packets stored in our database for station/object N9BID. If no packets are shown the sender has not sent any weather packets the latest 10 day(s).
| Time | Temp. | Humidity | Pressure | Rain* | Wind** | Luminosity | Snow |
|---|---|---|---|---|---|---|---|
| 1777513882 | 6.67° C | 60% | 1008.2 hPa | 0 mm | - | 0 W/m² | - |
| 1777513579 | 6.67° C | 61% | 1008.5 hPa | 0 mm | - | 0 W/m² | - |
| 1777513276 | 6.11° C | 61% | 1008.1 hPa | 0 mm | - | 0 W/m² | - |
| 1777512972 | 6.11° C | 64% | 1008.3 hPa | 0 mm | - | 0 W/m² | - |
| 1777512669 | 6.11° C | 65% | 1008.1 hPa | 0 mm | - | 0 W/m² | - |
| 1777512366 | 6.67° C | 63% | 1007.9 hPa | 0 mm | - | 0 W/m² | - |
| 1777512062 | 6.67° C | 62% | 1008.1 hPa | 0 mm | - | 0 W/m² | - |
| 1777511761 | 6.67° C | 62% | 1008 hPa | 0 mm | - | 0 W/m² | - |
| 1777511457 | 6.67° C | 60% | 1008 hPa | 0 mm | - | 0 W/m² | - |
| 1777511154 | 6.67° C | 59% | 1007.7 hPa | 0 mm | - | 0 W/m² | - |
| 1777510850 | 6.67° C | 58% | 1007.7 hPa | 0 mm | - | 1 W/m² | - |
| 1777510547 | 7.22° C | 57% | 1008.1 hPa | 0 mm | - | 3 W/m² | - |
| 1777510243 | 7.22° C | 58% | 1008.1 hPa | 0 mm | - | 5 W/m² | - |
| 1777509939 | 7.22° C | 58% | 1007.8 hPa | 0 mm | - | 6 W/m² | - |
| 1777509635 | 7.22° C | 56% | 1008 hPa | 0 mm | - | 7 W/m² | - |
| 1777509332 | 7.22° C | 58% | 1007.7 hPa | 0 mm | - | 11 W/m² | - |
| 1777509029 | 7.78° C | 59% | 1007.8 hPa | 0 mm | - | 16 W/m² | - |
| 1777508727 | 7.78° C | 55% | 1007.4 hPa | 0 mm | - | 21 W/m² | - |
| 1777508424 | 7.78° C | 58% | 1007.7 hPa | 0 mm | - | 17 W/m² | - |
| 1777508120 | 7.78° C | 58% | 1007.8 hPa | 0 mm | - | 19 W/m² | - |
| 1777507818 | 7.78° C | 60% | 1007.7 hPa | 0 mm | - | 36 W/m² | - |
| 1777507515 | 7.78° C | 56% | 1007.5 hPa | 0 mm | - | 25 W/m² | - |
| 1777507212 | 7.78° C | 54% | 1007.7 hPa | 0 mm | - | 26 W/m² | - |
| 1777506909 | 7.78° C | 58% | 1007.5 hPa | 0 mm | - | 31 W/m² | - |
| 1777506606 | 8.33° C | 58% | 1007.6 hPa | 0 mm | - | 40 W/m² | - |
* Rain latest hour (hover to see other rain measurements)
** Current wind speed in m/s (hover to see current wind gust speed)